• En España
  • Lista de países
  • Para 7 días
  • Temperatura del agua
  • Mapa Satelital
  • El tiempo en el mapa
  • Informadores
  • user-avatar
    Iniciar sesión

    Tiempo cada hora Galway

    Hoy, 15 Noviembre, Jueves

    Tiempo Temperatura Precipitaciones Viento Presión Humedad
    00:00 +13°C° 0.6 mm 4 mps 755 mmHg 92%
    01:00 +13°C° 0.6 mm 3 mps 755 mmHg 92%
    02:00 +13°C° 0.6 mm 3 mps 755 mmHg 93%
    03:00 +13°C° 1.3 mm 4 mps 754 mmHg 92%
    04:00 +13°C° 1.3 mm 6 mps 754 mmHg 91%
    05:00 +12°C° 0 mm 7 mps 754 mmHg 90%
    06:00 +12°C° 0.7 mm 7 mps 754 mmHg 89%
    07:00 +12°C° 0.7 mm 7 mps 754 mmHg 89%
    08:00 +11°C° 0.7 mm 8 mps 754 mmHg 89%
    09:00 +11°C° 0.9 mm 7 mps 755 mmHg 90%
    10:00 +11°C° 0.9 mm 6 mps 755 mmHg 90%
    11:00 +10°C° 0 mm 6 mps 755 mmHg 89%
    12:00 +10°C° 0.4 mm 6 mps 756 mmHg 88%
    13:00 +10°C° 0.4 mm 6 mps 756 mmHg 86%
    14:00 +10°C° 0.4 mm 6 mps 757 mmHg 85%
    15:00 +9°C° 0 mm 5 mps 757 mmHg 86%
    16:00 +9°C° 0 mm 5 mps 758 mmHg 88%
    17:00 +8°C° 0 mm 4 mps 758 mmHg 89%
    18:00 +8°C° 0 mm 4 mps 759 mmHg 90%
    19:00 +7°C° 0 mm 4 mps 759 mmHg 91%
    20:00 +8°C° 0 mm 3 mps 760 mmHg 91%
    21:00 +7°C° 0 mm 4 mps 760 mmHg 92%
    22:00 +6°C° 0 mm 4 mps 760 mmHg 92%
    23:00 +6°C° 0 mm 4 mps 761 mmHg 92%

    Mañana, 16 Noviembre, Viernes

    Tiempo Temperatura Precipitaciones Viento Presión Humedad
    00:00 +6°C° 0 mm 4 mps 761 mmHg 92%
    01:00 +6°C° 0 mm 4 mps 761 mmHg 92%
    02:00 +6°C° 0 mm 4 mps 761 mmHg 92%
    03:00 +6°C° 0 mm 5 mps 760 mmHg 93%
    04:00 +6°C° 0 mm 5 mps 760 mmHg 93%
    05:00 +7°C° 0 mm 5 mps 760 mmHg 93%
    06:00 +8°C° 0 mm 5 mps 760 mmHg 93%
    07:00 +9°C° 0 mm 6 mps 760 mmHg 93%
    08:00 +10°C° 0 mm 6 mps 760 mmHg 94%
    09:00 +11°C° 0 mm 7 mps 761 mmHg 91%
    10:00 +12°C° 0 mm 7 mps 761 mmHg 89%
    11:00 +14°C° 0 mm 7 mps 761 mmHg 86%
    12:00 +14°C° 0 mm 7 mps 761 mmHg 86%
    13:00 +14°C° 0 mm 7 mps 761 mmHg 86%
    14:00 +14°C° 0 mm 7 mps 761 mmHg 86%
    15:00 +14°C° 0 mm 7 mps 761 mmHg 88%
    16:00 +12°C° 0 mm 7 mps 761 mmHg 90%
    17:00 +11°C° 0 mm 7 mps 761 mmHg 92%
    18:00 +11°C° 0 mm 7 mps 761 mmHg 92%
    19:00 +11°C° 0 mm 7 mps 761 mmHg 92%
    20:00 +11°C° 0 mm 7 mps 761 mmHg 92%
    21:00 +11°C° 0 mm 7 mps 761 mmHg 91%
    22:00 +11°C° 0 mm 7 mps 761 mmHg 91%
    23:00 +12°C° 0 mm 7 mps 761 mmHg 90%

    Pasado mañana, 17 Noviembre, Sábado

    Tiempo Temperatura Precipitaciones Viento Presión Humedad
    00:00 +12°C° 0 mm 7 mps 761 mmHg 90%
    01:00 +12°C° 0 mm 7 mps 761 mmHg 89%
    02:00 +12°C° 0 mm 7 mps 761 mmHg 89%
    03:00 +12°C° 0 mm 7 mps 761 mmHg 89%
    04:00 +12°C° 0 mm 7 mps 762 mmHg 89%
    05:00 +12°C° 0 mm 7 mps 762 mmHg 89%
    06:00 +12°C° 0 mm 7 mps 762 mmHg 89%
    07:00 +12°C° 0 mm 7 mps 762 mmHg 89%
    08:00 +12°C° 0 mm 7 mps 762 mmHg 90%
    09:00 +12°C° 0 mm 7 mps 763 mmHg 88%
    10:00 +14°C° 0 mm 7 mps 763 mmHg 86%
    11:00 +13°C° 0 mm 8 mps 763 mmHg 84%
    12:00 +14°C° 0 mm 7 mps 763 mmHg 84%
    13:00 +12°C° 0 mm 7 mps 763 mmHg 84%
    14:00 +12°C° 0 mm 7 mps 763 mmHg 84%
    15:00 +11°C° 0 mm 6 mps 763 mmHg 85%
    16:00 +11°C° 0 mm 6 mps 763 mmHg 85%
    17:00 +10°C° 0 mm 6 mps 763 mmHg 85%
    18:00 +9°C° 0 mm 5 mps 764 mmHg 85%
    19:00 +9°C° 0 mm 5 mps 764 mmHg 84%
    20:00 +8°C° 0 mm 5 mps 765 mmHg 84%
    21:00 +8°C° 0 mm 5 mps 765 mmHg 84%
    22:00 +7°C° 0 mm 5 mps 765 mmHg 83%
    23:00 +7°C° 0 mm 5 mps 765 mmHg 83%

    18 Noviembre, Domingo

    Tiempo Temperatura Precipitaciones Viento Presión Humedad
    00:00 +6°C° 0 mm 5 mps 765 mmHg 84%
    01:00 +6°C° 0 mm 4 mps 765 mmHg 85%
    02:00 +6°C° 0 mm 4 mps 766 mmHg 86%
    03:00 +6°C° 0 mm 5 mps 766 mmHg 86%
    04:00 +6°C° 0 mm 5 mps 766 mmHg 87%
    05:00 +5°C° 0 mm 5 mps 766 mmHg 88%
    06:00 +5°C° 0 mm 5 mps 766 mmHg 87%
    07:00 +5°C° 0 mm 5 mps 767 mmHg 87%
    08:00 +5°C° 0 mm 5 mps 767 mmHg 86%
    09:00 +7°C° 0 mm 5 mps 767 mmHg 82%
    10:00 +8°C° 0 mm 6 mps 768 mmHg 78%
    11:00 +9°C° 0 mm 6 mps 768 mmHg 73%
    12:00 +9°C° 0 mm 5 mps 768 mmHg 73%
    13:00 +9°C° 0 mm 5 mps 767 mmHg 73%
    14:00 +9°C° 0 mm 5 mps 767 mmHg 73%
    15:00 +8°C° 0 mm 5 mps 767 mmHg 75%
    16:00 +7°C° 0 mm 5 mps 768 mmHg 77%
    17:00 +6°C° 0 mm 5 mps 768 mmHg 80%
    18:00 +6°C° 0 mm 5 mps 768 mmHg 80%
    19:00 +5°C° 0 mm 5 mps 768 mmHg 80%
    20:00 +5°C° 0 mm 5 mps 768 mmHg 80%
    21:00 +5°C° 0 mm 5 mps 768 mmHg 80%
    22:00 +5°C° 0 mm 5 mps 768 mmHg 80%
    23:00 +5°C° 0 mm 5 mps 767 mmHg 80%

    19 Noviembre, Lunes

    Tiempo Temperatura Precipitaciones Viento Presión Humedad
    00:00 +5°C° 0 mm 5 mps 767 mmHg 79%
    01:00 +5°C° 0 mm 5 mps 767 mmHg 79%
    02:00 +5°C° 0 mm 5 mps 767 mmHg 78%
    03:00 +5°C° 0 mm 5 mps 766 mmHg 77%
    04:00 +5°C° 0 mm 5 mps 766 mmHg 75%
    05:00 +5°C° 0 mm 5 mps 766 mmHg 74%
    06:00 +5°C° 0 mm 5 mps 766 mmHg 75%
    07:00 +5°C° 0 mm 5 mps 766 mmHg 76%
    08:00 +5°C° 0 mm 5 mps 766 mmHg 78%
    09:00 +5°C° 0 mm 6 mps 766 mmHg 77%
    10:00 +7°C° 0 mm 6 mps 766 mmHg 77%
    11:00 +8°C° 0 mm 7 mps 766 mmHg 77%
    12:00 +8°C° 0 mm 7 mps 766 mmHg 77%
    13:00 +8°C° 0 mm 7 mps 765 mmHg 77%
    14:00 +8°C° 0 mm 6 mps 765 mmHg 78%
    15:00 +7°C° 0 mm 6 mps 765 mmHg 77%
    16:00 +7°C° 0 mm 6 mps 765 mmHg 75%
    17:00 +5°C° 0 mm 6 mps 765 mmHg 74%
    18:00 +5°C° 0 mm 6 mps 765 mmHg 74%
    19:00 +5°C° 0 mm 6 mps 765 mmHg 74%
    20:00 +6°C° 0 mm 5 mps 765 mmHg 74%
    21:00 +6°C° 0 mm 5 mps 766 mmHg 75%
    22:00 +6°C° 0 mm 5 mps 766 mmHg 75%
    23:00 +6°C° 0 mm 5 mps 766 mmHg 76%

    20 Noviembre, Martes

    Tiempo Temperatura Precipitaciones Viento Presión Humedad
    00:00 +6°C° 0 mm 5 mps 765 mmHg 76%
    01:00 +6°C° 0 mm 5 mps 765 mmHg 77%
    02:00 +5°C° 0 mm 5 mps 765 mmHg 77%
    03:00 +5°C° 0 mm 5 mps 765 mmHg 77%
    04:00 +5°C° 0 mm 5 mps 765 mmHg 77%
    05:00 +5°C° 0 mm 5 mps 765 mmHg 78%
    06:00 +5°C° 0 mm 5 mps 765 mmHg 78%
    07:00 +5°C° 0 mm 4 mps 765 mmHg 78%
    08:00 +5°C° 0 mm 4 mps 765 mmHg 78%
    09:00 +5°C° 0 mm 5 mps 765 mmHg 76%
    10:00 +6°C° 0 mm 5 mps 765 mmHg 74%
    11:00 +6°C° 0 mm 5 mps 765 mmHg 72%
    12:00 +6°C° 0 mm 5 mps 764 mmHg 73%
    13:00 +6°C° 0 mm 5 mps 764 mmHg 74%
    14:00 +6°C° 0 mm 5 mps 764 mmHg 75%
    15:00 +5°C° 0 mm 5 mps 763 mmHg 77%
    16:00 +3°C° 0 mm 5 mps 763 mmHg 78%
    17:00 +3°C° 0 mm 5 mps 763 mmHg 79%
    18:00 +2°C° 0 mm 5 mps 763 mmHg 81%
    19:00 +2°C° 0 mm 5 mps 763 mmHg 82%
    20:00 +2°C° 0 mm 5 mps 763 mmHg 84%
    21:00 +2°C° 0 mm 5 mps 763 mmHg 84%
    22:00 +2°C° 0 mm 5 mps 763 mmHg 84%
    23:00 +1°C° 0 mm 5 mps 763 mmHg 83%
    Mostrar más